Location: Erlenbrunn
(49.1717°N, 7.6142°E)
Time: 05:11:48
(UTC+00:00)

Cosmos 2150 Rocket - Pass Details

Date: 25 November 2020
Orbit: 749 x 807 km, 74.0° (Epoch: 24 January)

Event Time Altitude Azimuth Distance (km) Brightness Sun altitude
Rises 16:16:54 0° 337° (NNW) 3,222 7.2 -6.5°
Reaches altitude 10° 16:19:17 10° 338° (NNW) 2,288 6.5 -6.8°
Maximum altitude 16:24:28 83° 66° (ENE) 762 3.9 -7.6°
Drops below altitude 10° 16:29:36 10° 155° (SSE) 2,265 6.4 -8.4°
Sets 16:31:57 0° 156° (SSE) 3,187 7.2 -8.7°
